Location: Eisenhütte
(51.8000°N, 9.7000°E)
Time: 14:59:09
(UTC+00:00)

Daily predictions for brighter satellites

Satellite Brightness Start Highest point End
(mag) Time Altitude Azimuth Time Altitude Azimuth Time Altitude Azimuth
Cosmos 2366 rocket 4.1 18:40:26 10° N 18:46:46 65° ENE 18:53:04 10° SSE
NOSS 2-3 (D) 3.5 18:48:07 10° SSW 18:51:39 48° SE 18:55:41 10° NE
ATLAS 3B R/B 4.0 18:48:32 10° SE 18:52:57 18° ESE 18:57:33 10° ENE
Cosmos 2098 Rocket 4.2 18:49:12 10° SSE 18:53:29 27° E 18:57:11 10° NNE
Cosmos 2218 Rocket 4.1 18:47:15 10° N 18:53:41 69° ENE 19:00:02 10° SSE
Cosmos 2278 Rocket 4.3 18:52:09 10° WSW 18:57:11 32° NW 19:02:15 10° NNE
CZ-4C R/B 4.4 18:55:07 10° NE 18:57:40 19° E 19:00:10 10° SE
USA 129 3.0 18:57:12 10° NE 18:59:40 29° E 19:01:51 10° SSE
Terra 3.5 18:56:34 10° E 18:59:43 18° ENE 19:02:54 10° NNE
USA 281 3.3 18:54:02 10° SE 19:00:35 75° ENE 19:07:10 10° NNW
NOSS 2-2 (E) 2.6 18:58:31 10° SW 19:01:41 71° SE 19:04:54 10° NE
Cosmos 1821 Rocket 4.3 18:56:25 10° N 19:02:27 50° ENE 19:08:23 10° SSE
Okean-O 3.1 18:59:36 10° SE 19:03:46 44° ENE 19:07:58 10° N
Cosmos 1959 Rocket 4.5 18:58:33 10° N 19:04:43 77° E 19:10:52 10° SSE
Cosmos 1441 Rocket 4.4 19:01:16 10° SSW 19:04:52 46° WNW 19:08:33 10° N
Ariane Rocket 4.4 19:06:37 10° ESE 19:10:27 22° ENE 19:14:18 10° N
Cosmos 1825 2.9 19:09:18 10° NNW 19:12:40 50° W 19:16:01 10° S
Cosmos 2344 3.6 19:07:10 10° SW 19:14:36 82° NW 19:22:15 10° NE
PSLV R/B 3.8 19:11:48 10° S 19:15:28 75° WSW 19:19:14 10° NNW
NOSS 2-2 (D) 2.6 19:12:42 10° SW 19:15:52 67° SE 19:19:03 10° NE
NOSS 2-3 (E) 3.2 19:14:29 10° SW 19:18:11 87° SE 19:22:30 10° NE
Cosmos 1025 Rocket 3.6 19:16:07 10° NNW 19:20:26 62° W 19:24:44 10° S
Cosmos 1656 Rocket 3.8 19:19:34 10° SW 19:25:06 79° WNW 19:30:37 10° NNE
Okean O Rocket 2.0 19:22:20 10° S 19:26:39 65° WSW 19:31:01 10° NNW
Cosmos 1302 Rocket 4.0 19:24:37 10° SSW 19:29:53 80° ESE 19:35:09 10° NNE
Cosmos 1975 Rocket 3.1 19:27:07 10° NNW 19:31:29 84° W 19:35:48 10° S
Resurs 01 Rocket 2.2 19:27:30 10° S 19:31:51 58° W 19:36:15 10° NNW
USA 267 3.5 19:27:09 10° ENE 19:33:41 74° NNW 19:40:13 10° WSW
CARTOSAT-1 4.1 19:32:30 10° S 19:36:43 57° W 19:40:57 10° NNW
ATLAS CENTAUR R/B 3.7 19:36:09 10° NNW 19:37:59 13° NNE 19:39:52 10° NE
Cosmos 2227 Rocket 3.9 19:35:13 10° NNW 19:39:33 22° NE 19:43:54 10° E
Landsat 4 4.0 19:37:44 20° SE 19:39:48 43° ENE 19:43:10 10° N
Meteor 1-11 4.2 19:35:34 10° NNW 19:41:15 89° E 19:46:57 10° S
CZ-4C R/B 3.8 19:37:44 10° NW 19:43:33 37° NNE 19:50:40 10° E
ATLAS 5 CENTAUR R/B 2.0 19:41:05 10° S 19:43:54 24° ESE 19:46:59 10° ENE
Cosmos 1346 Rocket 3.6 19:41:41 10° SSW 19:45:25 51° WNW 19:49:11 10° N
Cosmos 1934 Rocket 4.3 19:43:07 10° N 19:49:02 49° ENE 19:53:19 19° SE
Cosmos 1782 Rocket 4.2 19:46:28 10° SSW 19:50:46 58° WNW 19:55:09 10° N
BREEZE-M R/B 1.8 19:48:47 10° W 19:51:15 53° S 19:51:51 39° SE
SPOT 5 3.1 19:48:08 15° SSE 19:52:37 76° ENE 19:57:55 10° NNW
NOSS 3-1 (A) 3.8 19:52:37 10° S 19:56:54 29° ESE 20:01:50 10° ENE
Cosmos 1536 Rocket 3.8 19:52:57 10° N 19:57:16 53° ENE 19:59:38 25° SE
ERS-1 Rocket 3.1 19:56:33 22° SE 19:59:44 60° ENE 20:04:41 10° N
Cosmos 2181 Rocket 4.5 19:53:56 10° SSW 20:00:03 64° WNW 20:06:19 10° N
MOS 1 4.4 19:54:38 11° S 20:00:13 76° WSW 20:05:58 10° NNW
SL-27 R/B 2.3 19:58:44 10° NNW 20:01:38 60° WSW 20:02:51 30° S
Cosmos 2151 Rocket 3.9 19:59:50 23° SSE 20:02:13 45° E 20:06:26 10° NNE
NOSS 2-2 (C) 3.8 19:59:57 10° WSW 20:03:00 46° NW 20:06:12 10° NE
COSMOS 2455 3.7 19:58:49 10° NNW 20:04:29 39° NE 20:08:24 19° E
CZ-4 R/B 4.3 20:02:56 10° WSW 20:04:42 13° W 20:06:27 10° WNW
Cosmos 1777 Rocket 4.2 20:02:08 10° NNW 20:07:21 57° ENE 20:10:07 27° SE
SL-4 R/B 1.5 20:04:38 10° W 20:08:15 84° S 20:09:47 31° E
Cosmos 2297 Rocket 2.8 20:03:58 10° NNW 20:09:23 43° NE 20:12:23 24° ESE
CENTAUR R/B 4.1 20:04:21 10° NW 20:11:18 40° NNE 20:19:26 10° E
Cosmos 2369 Rocket 3.3 20:10:25 10° SW 20:15:54 48° NW 20:21:24 10° NNE
IRS-1C Rocket 4.3 20:12:55 17° S 20:17:03 70° WSW 20:22:21 10° NNW
Cosmos 1354 Rocket 4.1 20:12:01 10° NNW 20:17:20 64° ENE 20:19:53 30° SE
Cosmos 1503 Rocket 4.0 20:12:20 10° NNW 20:17:45 81° ENE 20:20:34 29° SSE
NOSS 3-1 (C) 3.0 20:13:54 10° SW 20:18:54 75° SE 20:25:02 10° NE
SJ 16-02 3.8 20:18:59 10° NW 20:21:59 18° W 20:24:57 10° SW
Cosmos 371 Rocket 3.2 20:17:13 10° NNW 20:22:03 80° ENE 20:24:08 34° SSE
Cosmos 1992 Rocket 4.2 20:19:39 10° SSW 20:24:52 74° WNW 20:30:07 10° NNE
Okean 2 Rocket 3.0 20:23:04 26° S 20:25:31 71° E 20:30:02 10° NNE
ARIANE 5 R/B 4.4 20:27:13 18° ENE 20:28:19 19° ENE 20:31:29 10° NNE
Spot 2 Rocket 3.4 20:26:59 31° SSE 20:29:28 82° ENE 20:34:33 10° NNW
Cosmos 1892 Rocket 4.2 20:26:56 10° N 20:30:59 36° ENE 20:31:41 34° E
Cosmos 2098 Rocket 4.5 20:28:06 10° SW 20:32:57 41° WNW 20:36:58 10° N
Terra 1.8 20:34:37 33° S 20:36:46 81° WSW 20:41:32 10° NNW
Iridium 2 3.2 20:34:03 10° N 20:37:01 66° W 20:37:10 65° WSW
Genesis I 3.1 20:33:30 10° NW 20:37:08 65° NE 20:37:37 57° E
Cosmos 304 Rocket 3.7 20:34:27 10° NNW 20:39:17 90° SSW 20:40:52 43° SSE
Sich 1 Rocket 3.5 20:38:15 26° SSW 20:40:41 83° WNW 20:45:09 10° N
ATLAS 3B R/B 2.8 20:35:17 10° SSW 20:42:20 68° SE 20:49:53 10° NE
Dummy Sat-01 4.4 20:43:35 69° SE 20:43:53 74° E 20:47:35 10° N
Cosmos 2263 Rocket 3.8 20:39:43 10° NNW 20:44:16 24° NE 20:47:19 16° E
Nadezhda 3 Rocket 4.4 20:38:12 10° SSW 20:44:17 64° WNW 20:50:26 10° N
Cosmos 1656 4.0 20:44:12 39° SE 20:44:50 40° ESE 20:49:57 10° NE
MOS 1 Rocket 3.1 20:45:24 52° SE 20:46:13 65° ENE 20:50:30 10° N
Ariane Rocket 3.1 20:46:40 33° S 20:48:56 70° WSW 20:54:00 10° NNW
Cosmos 1437 Rocket 3.3 20:45:46 10° N 20:49:27 42° ENE 20:49:27 42° ENE
Cosmos 332 Rocket 3.9 20:47:54 10° NNW 20:52:43 62° ENE 20:53:48 48° ESE
Cosmos 1605 Rocket 4.0 20:47:33 10° N 20:54:01 84° E 20:56:50 36° SSE
SPOT 3 Rocket 3.7 20:52:04 35° S 20:54:17 71° WSW 20:59:30 10° NNW
Cosmos 405 Rocket 3.9 21:03:02 30° NE 21:03:02 30° NE 21:05:22 10° NNE
Okean 1 Rocket 3.1 21:01:22 46° SSW 21:02:39 81° W 21:07:09 10° N
Cosmos 1763 Rocket 4.3 21:05:16 33° E 21:05:16 33° E 21:09:06 10° NE
Cosmos 1455 Rocket 3.3 21:07:53 50° E 21:07:53 50° E 21:11:53 10° NNE
Cosmos 990 Rocket 3.9 21:04:53 10° NNW 21:10:05 72° ENE 21:11:05 56° SE
Iridium 4 Rocket 4.2 21:10:59 25° SSW 21:14:05 57° W 21:19:47 10° N
Aureole 1 Rocket 3.7 21:11:22 10° NNW 21:13:19 31° N 21:13:19 31° N
USA 267 3.8 21:10:00 10° ENE 21:16:24 57° N 21:22:46 10° WNW
ATLAS CENTAUR R/B 2.3 21:13:23 10° NNW 21:16:47 33° NE 21:16:59 33° NE
MetOp-A 3.5 21:17:03 62° WSW 21:17:06 62° WSW 21:20:53 10° NNW
Spot 1 4.4 21:13:57 10° NNE 21:18:47 72° WNW 21:20:12 44° SW
Landsat 5 3.6 21:19:47 10° N 21:24:07 72° WNW 21:24:39 63° WSW
Cosmos 2227 Rocket 2.2 21:18:53 10° NNW 21:24:36 75° ENE 21:25:45 57° ESE
Cosmos 1727 Rocket 4.0 21:25:28 51° SE 21:26:48 63° E 21:32:59 10° NNE
Cosmos 2100 Rocket 4.1 21:20:34 10° N 21:26:55 61° ENE 21:28:21 49° SE
Cosmos 44 4.4 21:29:00 34° E 21:29:00 34° E 21:32:24 10° NE
ATLAS 5 CENTAUR R/B 2.2 21:24:08 10° WSW 21:27:32 45° NW 21:31:26 10° NE
Cosmos 1980 Rocket 3.9 21:34:09 18° ENE 21:34:09 18° ENE 21:36:28 10° NE
CZ-4C R/B 2.9 21:26:05 10° NW 21:32:55 80° NE 21:36:02 42° SE
Cosmos 2058 3.1 21:31:06 10° N 21:34:36 64° N 21:34:36 64° N
USA 81 3.9 21:35:33 70° SE 21:36:02 78° E 21:41:20 10° N
Cosmos 372 Rocket 4.3 21:33:43 10° NNW 21:38:52 54° ENE 21:39:24 52° E
Cosmos 540 Rocket 4.0 21:40:01 43° ENE 21:40:01 43° ENE 21:44:02 10° NE
Cosmos 1697 Rocket 3.1 21:43:51 45° E 21:43:51 45° E 21:48:32 10° NE
Cosmos 2123 Rocket 4.5 21:44:44 43° E 21:45:11 43° E 21:51:07 10° NNE
SL-4 R/B 3.9 21:43:32 10° W 21:44:39 19° W 21:44:39 19° W
Cosmos 1000 Rocket 4.4 21:46:26 58° SE 21:47:07 62° E 21:53:10 10° NNE
NOSS 3-1 (A) 3.5 21:41:59 10° WSW 21:47:09 66° NW 21:53:29 10° NE
Cosmos 1626 Rocket 3.8 21:43:05 10° N 21:46:58 63° NNE 21:46:58 63° NNE
H-2A R/B 3.2 21:51:13 45° N 21:51:13 45° N 21:53:57 10° N
Meteor 2-15 4.4 21:44:30 10° N 21:50:39 68° ENE 21:51:32 60° ESE
COSMOS 2455 2.9 21:44:48 10° NW 21:50:45 61° WSW 21:51:32 56° SSW
Cosmos 2297 Rocket 2.8 21:48:09 10° NW 21:53:27 43° WSW 21:54:12 40° SW
Cosmos 1937 Rocket 3.6 21:49:25 10° NNW 21:54:44 64° ENE 21:55:03 63° E
USA 229 DEB 3.4 21:54:04 61° S 21:54:59 70° SE 22:01:49 10° NE
USA 229 3.4 21:54:13 61° S 21:55:05 69° SE 22:01:55 10° NE
Okean 1-7 Rocket 4.1 21:53:32 10° N 21:57:26 55° NE 21:57:26 55° NE
Cosmos 2061 Rocket 4.4 21:53:01 10° N 21:59:18 50° ENE 22:00:19 46° ESE
Cosmos 1898 Rocket 3.3 21:54:05 10° NNW 21:59:24 89° E 21:59:29 87° SE
Meteor 2-3 Rocket 3.6 21:53:50 10° N 21:59:30 72° ENE 21:59:55 68° ESE
Cosmos 2219 3.0 21:55:06 10° NNW 22:00:49 81° ENE 22:01:16 74° ESE
CENTAUR R/B 3.2 21:55:14 10° NW 22:03:12 77° NE 22:06:57 40° ESE
ARIANE 5 R/B 2.9 22:04:41 65° WNW 22:04:41 65° WNW 22:08:46 10° NNW
Cosmos 1544 Rocket 4.2 22:08:57 52° NNE 22:08:57 52° NNE 22:12:17 10° NNE
Cosmos 1725 Rocket 3.8 22:05:35 10° N 22:11:48 75° E 22:12:27 68° SE
Cosmos 292 Rocket 4.0 22:09:59 10° NNW 22:14:10 67° NW 22:14:10 67° NW
Terra 4.3 22:13:19 10° WSW 22:15:09 12° W 22:17:06 10° WNW
Cosmos 2233 Rocket 4.1 22:12:26 10° N 22:18:31 59° ENE 22:19:06 57° E
Cosmos 2082 3.6 22:17:11 10° NNW 22:22:53 80° ENE 22:23:03 79° E
Cosmos 1459 Rocket 4.0 22:18:54 10° NNW 22:24:52 63° W 22:25:36 58° SW
Cosmos 1758 Rocket 4.2 22:23:45 10° NNW 22:27:17 53° NW 22:27:17 53° NW
Cosmos 1602 Rocket 4.2 22:24:11 10° NNW 22:27:32 52° NNW 22:27:32 52° NNW
ALOS 2 3.2 22:29:29 53° N 22:29:29 53° N 22:32:59 10° N
Cosmos 2263 Rocket 2.0 22:23:19 10° NNW 22:28:58 87° NE 22:28:58 87° NE
ATLAS 3B R/B 3.7 22:26:27 10° WSW 22:33:31 49° NNW 22:41:00 10° NE
NOSS 3-2 (C) 4.4 22:27:40 10° NW 22:34:32 57° NE 22:39:20 26° ESE
Spot 4 4.2 22:39:04 61° NW 22:39:04 61° NW 22:43:15 10° NNW
SL-19 R/B 4.2 22:33:59 10° NNE 22:39:29 76° E 22:39:29 76° E
Cosmos 1763 Rocket 4.4 22:45:12 38° W 22:46:10 42° NW 22:51:04 10° NNE
Cosmos 1825 Rocket 4.4 22:44:51 10° N 22:48:03 48° N 22:48:03 48° N
Cosmos 1802 Rocket 4.3 22:44:27 10° NNW 22:50:29 53° W 22:51:08 51° WSW
Meteor 1-27 4.2 22:51:20 74° ENE 22:51:20 74° ENE 22:56:35 10° NNE
SL-16 R/B 3.9 22:53:27 20° E 22:53:27 20° E 22:56:28 10° NE
ATLAS CENTAUR R/B 3.6 22:51:06 10° NW 22:52:06 17° WNW 22:52:06 17° WNW
USA 267 3.3 22:55:32 29° E 22:59:05 74° NNE 23:05:39 10° WNW
H-2A R/B 3.4 23:02:15 10° NNE 23:04:46 34° NE 23:04:46 34° NE
Cosmos 2228 4.4 23:08:35 34° NW 23:08:35 34° NW 23:11:40 10° N
Cosmos 2227 Rocket 3.8 23:03:46 10° NW 23:07:33 22° W 23:07:33 22° W
Cosmos 44 4.3 23:07:18 40° W 23:08:35 49° NW 23:13:43 10° NE
ATLAS 5 CENTAUR R/B 4.1 23:09:39 10° WNW 23:12:29 19° N 23:15:39 10° NE
Geosat 4.2 23:13:24 68° NNE 23:13:24 68° NNE 23:18:05 10° NNW
NOSS 3-2 (A) 3.9 23:06:07 10° NW 23:13:22 74° SW 23:14:40 63° S
PSLV R/B 4.5 23:10:35 10° NNE 23:14:02 49° NE 23:14:02 49° NE
Cosmos 1844 Rocket 3.2 23:10:11 10° NNW 23:15:41 51° NE 23:16:26 48° ENE
Cosmos 1125 Rocket 4.1 23:10:38 10° NNW 23:15:44 49° ENE 23:15:53 49° ENE
Cosmos 1980 Rocket 2.2 23:15:52 79° NW 23:15:52 79° NW 23:21:26 10° NNE
Cosmos 2151 4.1 23:13:04 10° N 23:15:54 41° N 23:15:54 41° N
CZ-4C R/B 3.7 23:14:45 10° NW 23:21:07 36° WSW 23:21:07 36° WSW
Cosmos 841 Rocket 3.9 23:23:47 56° NW 23:23:47 56° NW 23:28:43 10° NNE
Helios 1A Rocket 4.5 23:25:02 31° NNE 23:25:02 31° NNE 23:27:41 10° N
Cosmos 1697 Rocket 3.8 23:25:31 32° W 23:27:12 40° NW 23:32:33 10° NNE
Cosmos 2227 4.2 23:28:19 10° NNW 23:33:34 72° WNW 23:33:34 72° WNW
USA 238 DEB 4.1 23:26:58 10° NW 23:34:06 68° NE 23:38:30 27° ESE
USA 238 4.1 23:27:05 10° NW 23:34:13 67° NE 23:38:43 27° ESE
Cosmos 1809 Rocket 4.5 23:34:49 67° ESE 23:35:02 68° E 23:41:12 10° NNE
Cosmos 2369 3.7 23:36:22 72° WNW 23:36:25 72° WNW 23:42:06 10° NNE
Cosmos 2346 Rocket 4.3 23:47:36 79° SW 23:47:55 83° W 23:54:12 10° N
Meteor 1-25 Rocket 4.3 23:45:51 10° N 23:51:31 69° ENE 23:51:41 68° E
Meteor 1-20 Rocket 4.1 23:46:48 10° NNW 23:52:22 82° ENE 23:52:22 82° ENE
